AMOS-3

Last updated on Nov. 22, 2019, 4:19 a.m. UTC

1 32794U 08022A   19325.15910503 -.00000037  00000-0  00000+0 0  9991
2 32794   0.0149 249.6347 0001470 319.5441 263.8557  1.00270319 42381
UTC
Height (km)
Latitude
Longitude
Inclination
Orbital Period
UTC large
Height (km)
Speed (km/s)
/
Latitude / Longitude
Inclination (degrees)
Orbital Period (minutes)
Azimuth
Elevation
Range (km)
Doppler Factor
iOS Compass Heading
iOS Angle

Next 30 passes for location: Hong Kong

Rise time Rise Azimuth (degrees) Set time Set Azimuth (degrees) Duration Max altitude (degrees)

No matching passes for this satellites